This is the latest recevied weather packets stored in our database for station/object KG7BDA. If no packets are shown the sender has not sent any weather packets the latest 10 day(s).
| Time | Temp. | Humidity | Pressure | Rain* | Wind** | Luminosity | Snow |
|---|---|---|---|---|---|---|---|
| 1777584436 | 18.33° C | 31% | 1019.8 hPa | 0 mm | - | - | - |
| 1777584077 | 18.33° C | 31% | 1019.8 hPa | 0 mm | - | - | - |
| 1777583717 | 18.33° C | 30% | 1019.9 hPa | 0 mm | - | - | - |
| 1777583356 | 18.33° C | 32% | 1019.9 hPa | 0 mm | - | - | - |
| 1777582997 | 18.33° C | 33% | 1019.9 hPa | 0 mm | - | - | - |
| 1777582637 | 18.33° C | 35% | 1019.9 hPa | 0 mm | - | - | - |
| 1777582276 | 18.33° C | 34% | 1019.9 hPa | 0 mm | - | - | - |
| 1777581917 | 18.33° C | 34% | 1020.1 hPa | 0 mm | - | - | - |
| 1777581556 | 18.33° C | 33% | 1020 hPa | 0 mm | - | - | - |
| 1777581197 | 18.33° C | 33% | 1020.1 hPa | 0 mm | - | - | - |
| 1777580116 | 17.78° C | 33% | 1020.2 hPa | 0 mm | - | - | - |
| 1777579757 | 17.78° C | 34% | 1020.3 hPa | 0 mm | - | - | - |
| 1777579396 | 17.78° C | 33% | 1020.3 hPa | 0 mm | - | - | - |
| 1777579037 | 17.78° C | 34% | 1020.4 hPa | 0 mm | - | - | - |
| 1777578677 | 17.78° C | 34% | 1020.5 hPa | 0 mm | - | - | - |
| 1777578316 | 17.78° C | 35% | 1020.5 hPa | 0 mm | - | - | - |
| 1777577957 | 17.78° C | 35% | 1020.5 hPa | 0 mm | - | - | - |
| 1777577597 | 17.78° C | 34% | 1020.5 hPa | 0 mm | - | - | - |
| 1777577237 | 17.78° C | 34% | 1020.6 hPa | 0 mm | - | - | - |
| 1777576876 | 17.78° C | 37% | 1020.8 hPa | 0 mm | - | - | - |
| 1777576517 | 17.22° C | 36% | 1020.8 hPa | 0 mm | - | - | - |
| 1777576156 | 16.67° C | 37% | 1021 hPa | 0 mm | - | - | - |
| 1777575796 | 16.67° C | 39% | 1021 hPa | 0 mm | - | - | - |
| 1777575437 | 16.67° C | 37% | 1021 hPa | 0 mm | - | - | - |
| 1777575077 | 16.67° C | 37% | 1021.1 hPa | 0 mm | - | - | - |
* Rain latest hour (hover to see other rain measurements)
** Current wind speed in m/s (hover to see current wind gust speed)